Year,Month,Day,Hour,Minute,Value (Times are PST for windspeed in km/hr)
2012,03,30,00,00,0.00
2012,03,30,00,01,0.00
2012,03,30,00,02,0.00
2012,03,30,00,03,0.00
2012,03,30,00,04,0.00
2012,03,30,00,05,0.00
2012,03,30,00,06,0.00
2012,03,30,00,07,0.00
2012,03,30,00,08,0.00
2012,03,30,00,09,0.10
2012,03,30,00,10,0.00
2012,03,30,00,11,0.00
2012,03,30,00,12,0.00
2012,03,30,00,13,0.00
2012,03,30,00,14,0.00
2012,03,30,00,15,0.00
2012,03,30,00,16,0.10
2012,03,30,00,17,0.00
2012,03,30,00,18,0.00
2012,03,30,00,19,0.00
2012,03,30,00,20,0.10
2012,03,30,00,21,0.50
2012,03,30,00,22,0.10
2012,03,30,00,23,0.00
2012,03,30,00,24,0.00
2012,03,30,00,25,0.10
2012,03,30,00,26,0.50
2012,03,30,00,27,0.00
2012,03,30,00,28,0.00
2012,03,30,00,29,0.00
2012,03,30,00,30,0.00
2012,03,30,00,31,0.00
2012,03,30,00,32,0.00
2012,03,30,00,33,0.00
2012,03,30,00,34,0.00
2012,03,30,00,35,0.00
2012,03,30,00,36,0.00
2012,03,30,00,37,0.00
2012,03,30,00,38,0.00
2012,03,30,00,39,0.00
2012,03,30,00,40,0.00
2012,03,30,00,41,0.00
2012,03,30,00,42,0.00
2012,03,30,00,43,0.00
2012,03,30,00,44,0.20
2012,03,30,00,45,0.20
2012,03,30,00,46,0.00
2012,03,30,00,47,0.00
2012,03,30,00,48,0.00
2012,03,30,00,49,0.10
2012,03,30,00,50,0.00
2012,03,30,00,51,0.00
2012,03,30,00,52,0.00
2012,03,30,00,53,0.10
2012,03,30,00,54,0.00
2012,03,30,00,55,0.00
2012,03,30,00,56,0.00
2012,03,30,00,57,0.00
2012,03,30,00,58,0.00
2012,03,30,00,59,0.00
2012,03,30,01,00,0.00
2012,03,30,01,01,0.00
2012,03,30,01,02,0.00
2012,03,30,01,03,0.20
2012,03,30,01,04,1.50
2012,03,30,01,05,0.60
2012,03,30,01,06,0.10
2012,03,30,01,07,0.00
2012,03,30,01,08,0.10
2012,03,30,01,09,1.00
2012,03,30,01,10,0.10
2012,03,30,01,11,0.00
2012,03,30,01,12,0.00
2012,03,30,01,13,0.00
2012,03,30,01,14,0.20
2012,03,30,01,15,1.00
2012,03,30,01,16,1.70
2012,03,30,01,17,0.00
2012,03,30,01,18,0.10
2012,03,30,01,19,0.90
2012,03,30,01,20,1.20
2012,03,30,01,21,0.60
2012,03,30,01,22,1.10
2012,03,30,01,23,0.00
2012,03,30,01,24,0.10
2012,03,30,01,25,0.00
2012,03,30,01,26,0.00
2012,03,30,01,27,0.10
2012,03,30,01,28,0.20
2012,03,30,01,29,1.40
2012,03,30,01,30,0.60
2012,03,30,01,31,0.30
2012,03,30,01,32,0.50
2012,03,30,01,33,0.00
2012,03,30,01,34,0.00
2012,03,30,01,35,0.00
2012,03,30,01,36,0.00
2012,03,30,01,37,1.70
2012,03,30,01,38,0.30
2012,03,30,01,39,0.00
2012,03,30,01,40,0.80
2012,03,30,01,41,2.60
2012,03,30,01,42,3.40
2012,03,30,01,43,3.00
2012,03,30,01,44,0.30
2012,03,30,01,45,0.00
2012,03,30,01,46,0.00
2012,03,30,01,47,0.00
2012,03,30,01,48,0.00
2012,03,30,01,49,0.10
2012,03,30,01,50,0.20
2012,03,30,01,51,0.00
2012,03,30,01,52,0.00
2012,03,30,01,53,0.00
2012,03,30,01,54,0.00
2012,03,30,01,55,0.00
2012,03,30,01,56,0.00
2012,03,30,01,57,0.00
2012,03,30,01,58,0.60
2012,03,30,01,59,0.20
2012,03,30,02,00,0.10
2012,03,30,02,01,0.00
2012,03,30,02,02,0.00
2012,03,30,02,03,0.00
2012,03,30,02,04,0.00
2012,03,30,02,05,0.50
2012,03,30,02,06,2.40
2012,03,30,02,07,0.60
2012,03,30,02,08,0.00
2012,03,30,02,09,0.20
2012,03,30,02,10,0.00
2012,03,30,02,11,0.00
2012,03,30,02,12,0.20
2012,03,30,02,13,0.20
2012,03,30,02,14,0.00
2012,03,30,02,15,0.10
2012,03,30,02,16,0.00
2012,03,30,02,17,0.00
2012,03,30,02,18,0.40
2012,03,30,02,19,0.00
2012,03,30,02,20,0.20
2012,03,30,02,21,0.40
2012,03,30,02,22,0.10
2012,03,30,02,23,0.10
2012,03,30,02,24,0.00
2012,03,30,02,25,0.00
2012,03,30,02,26,0.00
2012,03,30,02,27,0.00
2012,03,30,02,28,0.10
2012,03,30,02,29,0.00
2012,03,30,02,30,0.90
2012,03,30,02,31,1.80
2012,03,30,02,32,0.40
2012,03,30,02,33,1.10
2012,03,30,02,34,0.00
2012,03,30,02,35,0.80
2012,03,30,02,36,0.30
2012,03,30,02,37,0.20
2012,03,30,02,38,1.40
2012,03,30,02,39,1.90
2012,03,30,02,40,1.40
2012,03,30,02,41,1.30
2012,03,30,02,42,0.90
2012,03,30,02,43,1.10
2012,03,30,02,44,0.20
2012,03,30,02,45,1.40
2012,03,30,02,46,4.30
2012,03,30,02,47,4.40
2012,03,30,02,48,3.00
2012,03,30,02,49,1.70
2012,03,30,02,50,1.20
2012,03,30,02,51,0.10
2012,03,30,02,52,1.70
2012,03,30,02,53,0.10
2012,03,30,02,54,0.00
2012,03,30,02,55,0.00
2012,03,30,02,56,0.20
2012,03,30,02,57,0.00
2012,03,30,02,58,0.10
2012,03,30,02,59,1.50
2012,03,30,03,00,0.00
2012,03,30,03,01,0.00
2012,03,30,03,02,0.00
2012,03,30,03,03,0.50
2012,03,30,03,04,1.60
2012,03,30,03,05,0.30
2012,03,30,03,06,0.00
2012,03,30,03,07,0.00
2012,03,30,03,08,1.60
2012,03,30,03,09,0.00
2012,03,30,03,10,0.00
2012,03,30,03,11,0.00
2012,03,30,03,12,0.00
2012,03,30,03,13,0.00
2012,03,30,03,14,0.00
2012,03,30,03,15,0.00
2012,03,30,03,16,0.00
2012,03,30,03,17,0.20
2012,03,30,03,18,0.90
2012,03,30,03,19,2.20
2012,03,30,03,20,1.90
2012,03,30,03,21,3.30
2012,03,30,03,22,2.60
2012,03,30,03,23,4.70
2012,03,30,03,24,2.60
2012,03,30,03,25,1.00
2012,03,30,03,26,3.40
2012,03,30,03,27,3.40
2012,03,30,03,28,4.10
2012,03,30,03,29,3.60
2012,03,30,03,30,3.90
2012,03,30,03,31,3.50
2012,03,30,03,32,3.80
2012,03,30,03,33,6.80
2012,03,30,03,34,3.10
2012,03,30,03,35,2.20
2012,03,30,03,36,2.50
2012,03,30,03,37,1.40
2012,03,30,03,38,1.70
2012,03,30,03,39,1.90
2012,03,30,03,40,0.20
2012,03,30,03,41,1.30
2012,03,30,03,42,1.00
2012,03,30,03,43,2.30
2012,03,30,03,44,0.90
2012,03,30,03,45,0.00
2012,03,30,03,46,0.10
2012,03,30,03,47,0.00
2012,03,30,03,48,0.70
2012,03,30,03,49,0.20
2012,03,30,03,50,0.00
2012,03,30,03,51,0.00
2012,03,30,03,52,1.80
2012,03,30,03,53,0.30
2012,03,30,03,54,2.80
2012,03,30,03,55,2.00
2012,03,30,03,56,1.10
2012,03,30,03,57,0.00
2012,03,30,03,58,1.40
2012,03,30,03,59,1.50
2012,03,30,04,00,0.00
2012,03,30,04,01,0.10
2012,03,30,04,02,0.00
2012,03,30,04,03,0.00
2012,03,30,04,04,0.00
2012,03,30,04,05,0.00
2012,03,30,04,06,0.00
2012,03,30,04,07,0.00
2012,03,30,04,08,0.00
2012,03,30,04,09,0.10
2012,03,30,04,10,0.80
2012,03,30,04,11,0.10
2012,03,30,04,12,0.00
2012,03,30,04,13,0.00
2012,03,30,04,14,0.00
2012,03,30,04,15,0.00
2012,03,30,04,16,0.00
2012,03,30,04,17,0.00
2012,03,30,04,18,0.00
2012,03,30,04,19,0.00
2012,03,30,04,20,0.00
2012,03,30,04,21,0.00
2012,03,30,04,22,0.00
2012,03,30,04,23,0.00
2012,03,30,04,24,0.00
2012,03,30,04,25,0.00
2012,03,30,04,26,0.00
2012,03,30,04,27,0.00
2012,03,30,04,28,0.00
2012,03,30,04,29,0.10
2012,03,30,04,30,0.00
2012,03,30,04,31,0.00
2012,03,30,04,32,0.00
2012,03,30,04,33,0.00
2012,03,30,04,34,0.00
2012,03,30,04,35,0.00
2012,03,30,04,36,0.00
2012,03,30,04,37,0.00
2012,03,30,04,38,0.00
2012,03,30,04,39,0.00
2012,03,30,04,40,0.00
2012,03,30,04,41,0.00
2012,03,30,04,42,0.00
2012,03,30,04,43,0.00
2012,03,30,04,44,0.00
2012,03,30,04,45,0.00
2012,03,30,04,46,0.20
2012,03,30,04,47,0.00
2012,03,30,04,48,0.10
2012,03,30,04,49,0.20
2012,03,30,04,50,0.30
2012,03,30,04,51,1.10
2012,03,30,04,52,1.80
2012,03,30,04,53,0.20
2012,03,30,04,54,0.50
2012,03,30,04,55,0.00
2012,03,30,04,56,0.00
2012,03,30,04,57,0.00
2012,03,30,04,58,0.00
2012,03,30,04,59,0.00
2012,03,30,05,00,0.00
2012,03,30,05,01,0.00
2012,03,30,05,02,0.00
2012,03,30,05,03,0.00
2012,03,30,05,04,0.00
2012,03,30,05,05,0.00
2012,03,30,05,06,0.00
2012,03,30,05,07,0.00
2012,03,30,05,08,0.00
2012,03,30,05,09,0.00
2012,03,30,05,10,0.00
2012,03,30,05,11,0.00
2012,03,30,05,12,0.40
2012,03,30,05,13,0.60
2012,03,30,05,14,0.00
2012,03,30,05,15,0.00
2012,03,30,05,16,0.00
2012,03,30,05,17,0.00
2012,03,30,05,18,0.00
2012,03,30,05,19,0.00
2012,03,30,05,20,0.50
2012,03,30,05,21,0.00
2012,03,30,05,22,0.00
2012,03,30,05,23,0.00
2012,03,30,05,24,0.10
2012,03,30,05,25,0.00
2012,03,30,05,26,0.00
2012,03,30,05,27,0.00
2012,03,30,05,28,0.00
2012,03,30,05,29,0.00
2012,03,30,05,30,0.00
2012,03,30,05,31,0.00
2012,03,30,05,32,0.00
2012,03,30,05,33,0.00
2012,03,30,05,34,0.00
2012,03,30,05,35,0.00
2012,03,30,05,36,0.00
2012,03,30,05,37,0.00
2012,03,30,05,38,0.00
2012,03,30,05,39,0.00
2012,03,30,05,40,0.00
2012,03,30,05,41,0.00
2012,03,30,05,42,0.00
2012,03,30,05,43,0.00
2012,03,30,05,44,0.00
2012,03,30,05,45,0.00
2012,03,30,05,46,0.00
2012,03,30,05,47,0.60
2012,03,30,05,48,0.10
2012,03,30,05,49,0.00
2012,03,30,05,50,0.00
2012,03,30,05,51,0.00
2012,03,30,05,52,0.10
2012,03,30,05,53,1.10
2012,03,30,05,54,0.10
2012,03,30,05,55,0.00
2012,03,30,05,56,0.00
2012,03,30,05,57,0.50
2012,03,30,05,58,0.20
2012,03,30,05,59,0.00
2012,03,30,06,00,0.00
2012,03,30,06,01,0.50
2012,03,30,06,02,0.00
2012,03,30,06,03,0.20
2012,03,30,06,04,1.20
2012,03,30,06,05,1.30
2012,03,30,06,06,0.10
2012,03,30,06,07,0.20
2012,03,30,06,08,0.20
2012,03,30,06,09,0.60
2012,03,30,06,10,0.10
2012,03,30,06,11,0.20
2012,03,30,06,12,0.00
2012,03,30,06,13,0.00
2012,03,30,06,14,0.20
2012,03,30,06,15,0.10
2012,03,30,06,16,0.00
2012,03,30,06,17,2.40
2012,03,30,06,18,0.40
2012,03,30,06,19,0.10
2012,03,30,06,20,0.00
2012,03,30,06,21,0.00
2012,03,30,06,22,0.00
2012,03,30,06,23,0.00
2012,03,30,06,24,0.00
2012,03,30,06,25,0.00
2012,03,30,06,26,0.00
2012,03,30,06,27,0.00
2012,03,30,06,28,0.00
2012,03,30,06,29,0.00
2012,03,30,06,30,0.00
2012,03,30,06,31,0.00
2012,03,30,06,32,0.00
2012,03,30,06,33,0.00
2012,03,30,06,34,0.00
2012,03,30,06,35,0.00
2012,03,30,06,36,0.00
2012,03,30,06,37,0.00
2012,03,30,06,38,0.00
2012,03,30,06,39,0.00
2012,03,30,06,40,0.00
2012,03,30,06,41,0.00
2012,03,30,06,42,0.00
2012,03,30,06,43,2.20
2012,03,30,06,44,0.90
2012,03,30,06,45,2.50
2012,03,30,06,46,0.00
2012,03,30,06,47,0.10
2012,03,30,06,48,0.50
2012,03,30,06,49,0.10
2012,03,30,06,50,0.10
2012,03,30,06,51,0.90
2012,03,30,06,52,0.00
2012,03,30,06,53,0.10
2012,03,30,06,54,0.00
2012,03,30,06,55,0.60
2012,03,30,06,56,0.10
2012,03,30,06,57,0.00
2012,03,30,06,58,0.00
2012,03,30,06,59,0.00
2012,03,30,07,00,0.00
2012,03,30,07,01,0.00
2012,03,30,07,02,0.00
2012,03,30,07,03,0.10
2012,03,30,07,04,0.10
2012,03,30,07,05,0.00
2012,03,30,07,06,0.10
2012,03,30,07,07,0.00
2012,03,30,07,08,0.60
2012,03,30,07,09,0.10
2012,03,30,07,10,0.00
2012,03,30,07,11,0.00
2012,03,30,07,12,0.00
2012,03,30,07,13,1.90
2012,03,30,07,14,3.70
2012,03,30,07,15,5.60
2012,03,30,07,16,6.60
2012,03,30,07,17,3.80
2012,03,30,07,18,3.10
2012,03,30,07,19,6.10
2012,03,30,07,20,10.00
2012,03,30,07,21,8.20
2012,03,30,07,22,6.20
2012,03,30,07,23,11.90
2012,03,30,07,24,3.00
2012,03,30,07,25,7.40
2012,03,30,07,26,4.10
2012,03,30,07,27,4.30
2012,03,30,07,28,4.50
2012,03,30,07,29,1.20
2012,03,30,07,30,2.50
2012,03,30,07,31,2.60
2012,03,30,07,32,0.80
2012,03,30,07,33,1.90
2012,03,30,07,34,5.20
2012,03,30,07,35,1.90
2012,03,30,07,36,0.20
2012,03,30,07,37,0.20
2012,03,30,07,38,1.00
2012,03,30,07,39,1.40
2012,03,30,07,40,0.00
2012,03,30,07,41,0.00
2012,03,30,07,42,0.00
2012,03,30,07,43,1.70
2012,03,30,07,44,0.10
2012,03,30,07,45,0.00
2012,03,30,07,46,0.60
2012,03,30,07,47,2.50
2012,03,30,07,48,3.00
2012,03,30,07,49,0.40
2012,03,30,09,08,0.00
2012,03,30,09,09,0.10
2012,03,30,09,10,1.30
2012,03,30,09,11,0.30
2012,03,30,09,12,0.40
2012,03,30,09,13,1.30
2012,03,30,09,14,0.60
2012,03,30,09,15,0.30
2012,03,30,09,16,0.10
2012,03,30,09,17,0.60
2012,03,30,09,18,1.40
2012,03,30,09,19,1.40
2012,03,30,09,20,1.00
2012,03,30,09,21,3.70
2012,03,30,09,22,2.30
2012,03,30,09,23,4.30
2012,03,30,09,24,0.20
2012,03,30,09,25,3.10
2012,03,30,09,26,1.10
2012,03,30,09,27,1.00
2012,03,30,09,28,1.00
2012,03,30,09,29,6.70
2012,03,30,09,30,4.80
2012,03,30,09,31,5.10
2012,03,30,09,32,0.60
2012,03,30,09,33,12.40
2012,03,30,09,34,16.90
2012,03,30,09,35,15.90
2012,03,30,09,36,12.10
2012,03,30,09,37,4.40
2012,03,30,09,38,4.60
2012,03,30,09,39,2.90
2012,03,30,09,40,2.40
2012,03,30,09,41,9.50
2012,03,30,09,42,4.20
2012,03,30,09,43,7.40
2012,03,30,09,44,9.20
2012,03,30,09,45,0.80
2012,03,30,09,46,1.10
2012,03,30,09,47,6.50
2012,03,30,09,48,11.60
2012,03,30,09,49,9.10
2012,03,30,09,50,13.90
2012,03,30,09,51,4.70
2012,03,30,09,52,9.70
2012,03,30,09,53,16.30
2012,03,30,09,54,2.60
2012,03,30,09,55,4.00
2012,03,30,09,56,0.80
2012,03,30,09,57,2.70
2012,03,30,09,58,4.90
2012,03,30,09,59,14.60
2012,03,30,10,00,7.40
2012,03,30,10,01,8.80
2012,03,30,10,02,8.50
2012,03,30,10,03,1.50
2012,03,30,10,04,6.10
2012,03,30,10,05,7.50
2012,03,30,10,06,4.00
2012,03,30,10,07,2.20
2012,03,30,10,08,0.20
2012,03,30,10,09,3.10
2012,03,30,10,10,1.10
2012,03,30,10,11,1.60
2012,03,30,10,12,1.00
2012,03,30,10,13,2.70
2012,03,30,10,14,2.40
2012,03,30,10,15,0.60
2012,03,30,10,16,0.80
2012,03,30,10,17,3.40
2012,03,30,10,18,0.70
2012,03,30,10,19,0.10
2012,03,30,10,20,0.40
2012,03,30,10,21,0.70
2012,03,30,10,22,1.60
2012,03,30,10,23,1.50
2012,03,30,10,24,1.20
2012,03,30,10,25,0.40
2012,03,30,10,26,1.40
2012,03,30,10,27,0.30
2012,03,30,10,28,0.60
2012,03,30,10,29,0.10
2012,03,30,10,30,0.00
2012,03,30,10,31,2.20
2012,03,30,10,32,0.20
2012,03,30,10,33,0.90
2012,03,30,10,34,2.00
2012,03,30,10,35,11.30
2012,03,30,10,36,8.40
2012,03,30,10,37,2.30
2012,03,30,10,38,0.30
2012,03,30,10,39,0.60
2012,03,30,10,40,2.30
2012,03,30,10,41,0.50
2012,03,30,10,42,0.90
2012,03,30,10,43,0.10
2012,03,30,10,44,0.80
2012,03,30,10,45,1.80
2012,03,30,10,46,0.00
2012,03,30,10,47,0.20
2012,03,30,10,48,0.40
2012,03,30,10,49,0.70
2012,03,30,10,50,0.90
2012,03,30,10,51,1.00
2012,03,30,10,52,0.10
2012,03,30,10,53,0.10
2012,03,30,10,54,0.80
2012,03,30,10,55,0.10
2012,03,30,10,56,2.90
2012,03,30,10,57,1.60
2012,03,30,10,58,0.70
2012,03,30,10,59,0.60
2012,03,30,11,00,0.20
2012,03,30,11,01,1.00
2012,03,30,11,02,2.20
2012,03,30,11,03,1.40
2012,03,30,11,04,2.50
2012,03,30,11,05,0.60
2012,03,30,11,06,3.10
2012,03,30,11,07,1.30
2012,03,30,11,08,1.20
2012,03,30,11,09,0.60
2012,03,30,11,10,0.80
2012,03,30,11,11,1.90
2012,03,30,11,12,1.50
2012,03,30,11,13,0.60
2012,03,30,11,14,0.20
2012,03,30,11,15,0.40
2012,03,30,11,16,1.40
2012,03,30,11,17,7.60
2012,03,30,11,18,6.20
2012,03,30,11,19,5.60
2012,03,30,11,20,4.20
2012,03,30,11,21,5.90
2012,03,30,11,22,2.90
2012,03,30,11,23,0.40
2012,03,30,11,24,1.70
2012,03,30,11,25,3.30
2012,03,30,11,26,1.40
2012,03,30,11,27,0.90
2012,03,30,11,28,1.70
2012,03,30,11,29,0.10
2012,03,30,11,30,0.70
2012,03,30,11,31,2.10
2012,03,30,11,32,6.40
2012,03,30,11,33,2.80
2012,03,30,11,34,3.10
2012,03,30,11,35,5.30
2012,03,30,11,36,10.30
2012,03,30,11,37,6.90
2012,03,30,11,38,0.90
2012,03,30,11,39,2.60
2012,03,30,11,40,5.10
2012,03,30,11,41,9.50
2012,03,30,11,42,7.50
2012,03,30,11,43,8.20
2012,03,30,11,44,6.10
2012,03,30,11,45,2.00
2012,03,30,11,46,2.80
2012,03,30,11,47,0.80
2012,03,30,11,48,4.40
2012,03,30,11,49,8.20
2012,03,30,11,50,4.20
2012,03,30,11,51,2.70
2012,03,30,11,52,3.70
2012,03,30,11,53,3.50
2012,03,30,11,54,3.50
2012,03,30,11,55,3.40
2012,03,30,11,56,2.80
2012,03,30,11,57,2.60
2012,03,30,11,58,0.60
2012,03,30,11,59,0.00
2012,03,30,12,00,0.00
2012,03,30,12,01,0.00
2012,03,30,12,02,1.40
2012,03,30,12,03,0.50
2012,03,30,12,04,0.20
2012,03,30,12,05,0.80
2012,03,30,12,06,0.00
2012,03,30,12,07,0.40
2012,03,30,12,08,2.40
2012,03,30,12,09,4.20
2012,03,30,12,10,5.80
2012,03,30,12,11,5.20
2012,03,30,12,12,5.30
2012,03,30,12,13,6.70
2012,03,30,12,14,1.40
2012,03,30,12,15,4.60
2012,03,30,12,16,5.50
2012,03,30,12,17,1.70
2012,03,30,12,18,0.60
2012,03,30,12,19,0.50
2012,03,30,12,20,0.70
2012,03,30,12,21,3.60
2012,03,30,12,22,8.10
2012,03,30,12,23,6.70
2012,03,30,12,24,1.90
2012,03,30,12,25,0.40
2012,03,30,12,26,1.20
2012,03,30,12,27,0.10
2012,03,30,12,28,0.20
2012,03,30,12,29,2.60
2012,03,30,12,30,2.40
2012,03,30,12,31,0.90
2012,03,30,12,32,2.60
2012,03,30,12,33,3.10
2012,03,30,12,34,0.30
2012,03,30,12,35,0.20
2012,03,30,12,36,2.10
2012,03,30,12,37,0.90
2012,03,30,12,38,0.00
2012,03,30,12,39,0.10
2012,03,30,12,40,0.30
2012,03,30,12,41,0.10
2012,03,30,12,42,0.00
2012,03,30,12,43,0.00
2012,03,30,12,44,0.00
2012,03,30,12,45,0.10
2012,03,30,12,46,0.70
2012,03,30,12,47,1.40
2012,03,30,12,48,0.90
2012,03,30,12,49,0.10
2012,03,30,12,50,0.10
2012,03,30,12,51,0.60
2012,03,30,12,52,0.90
2012,03,30,12,53,5.40
2012,03,30,12,54,4.80
2012,03,30,12,55,5.20
2012,03,30,12,56,3.90
2012,03,30,12,57,1.00
2012,03,30,12,58,1.00
2012,03,30,12,59,0.20
2012,03,30,13,00,0.60
2012,03,30,13,01,2.90
2012,03,30,13,02,2.20
2012,03,30,13,03,2.50
2012,03,30,13,04,0.30
2012,03,30,13,05,1.30
2012,03,30,13,06,0.60
2012,03,30,13,07,0.40
2012,03,30,13,08,0.00
2012,03,30,13,09,0.60
2012,03,30,13,10,2.70
2012,03,30,13,11,5.80
2012,03,30,13,12,2.90
2012,03,30,13,13,1.90
2012,03,30,13,14,1.50
2012,03,30,13,15,1.00
2012,03,30,13,16,2.50
2012,03,30,13,17,0.10
2012,03,30,13,18,1.80
2012,03,30,13,19,3.10
2012,03,30,13,20,0.60
2012,03,30,13,21,3.30
2012,03,30,13,22,0.10
2012,03,30,13,23,0.00
2012,03,30,13,24,0.00
2012,03,30,13,25,0.00
2012,03,30,13,26,0.00
2012,03,30,13,27,0.00
2012,03,30,13,28,0.00
2012,03,30,13,29,0.10
2012,03,30,13,30,0.00
2012,03,30,13,31,0.00
2012,03,30,13,32,0.10
2012,03,30,13,33,0.10
2012,03,30,13,34,1.10
2012,03,30,13,35,0.20
2012,03,30,13,36,1.70
2012,03,30,13,37,1.40
2012,03,30,13,38,0.50
2012,03,30,13,39,0.20
2012,03,30,13,40,0.20
2012,03,30,13,41,0.00
2012,03,30,13,42,0.00
2012,03,30,13,43,0.00
2012,03,30,13,44,0.00
2012,03,30,13,45,0.00
2012,03,30,13,46,0.00
2012,03,30,13,47,0.00
2012,03,30,13,48,0.00
2012,03,30,13,49,0.10
2012,03,30,13,50,0.90
2012,03,30,13,51,2.50
2012,03,30,13,52,2.40
2012,03,30,13,53,7.70
2012,03,30,13,54,6.10
2012,03,30,13,55,1.80
2012,03,30,13,56,0.70
2012,03,30,13,57,0.40
2012,03,30,13,58,3.20
2012,03,30,13,59,0.70
2012,03,30,14,00,2.10
2012,03,30,14,01,0.10
2012,03,30,14,02,0.00
2012,03,30,14,03,0.00
2012,03,30,14,04,0.00
2012,03,30,14,05,0.00
2012,03,30,14,06,0.00
2012,03,30,14,07,0.10
2012,03,30,14,08,1.70
2012,03,30,14,09,0.10
2012,03,30,14,10,0.00
2012,03,30,14,11,0.00
2012,03,30,14,12,0.00
2012,03,30,14,13,0.00
2012,03,30,14,14,0.00
2012,03,30,14,15,0.10
2012,03,30,14,16,0.00
2012,03,30,14,17,0.00
2012,03,30,14,18,0.00
2012,03,30,14,19,0.10
2012,03,30,14,20,0.00
2012,03,30,14,21,0.00
2012,03,30,14,22,0.00
2012,03,30,14,23,0.00
2012,03,30,14,24,0.00
2012,03,30,14,25,0.00
2012,03,30,14,26,0.00
2012,03,30,14,27,0.00
2012,03,30,14,28,0.00
2012,03,30,14,29,0.00
2012,03,30,14,30,0.00
2012,03,30,14,31,0.00
2012,03,30,14,32,0.00
2012,03,30,14,33,0.00
2012,03,30,14,34,0.00
2012,03,30,14,35,0.00
2012,03,30,14,36,0.00
2012,03,30,14,37,0.00
2012,03,30,14,38,0.00
2012,03,30,14,39,0.00
2012,03,30,14,40,0.00
2012,03,30,14,41,0.00
2012,03,30,14,42,0.00
2012,03,30,14,43,0.00
2012,03,30,14,44,0.00
2012,03,30,14,45,0.00
2012,03,30,14,46,0.00
2012,03,30,14,47,0.00
2012,03,30,14,48,0.00
2012,03,30,14,49,0.00
2012,03,30,14,50,0.00
2012,03,30,14,51,0.00
2012,03,30,14,52,0.00
2012,03,30,14,53,0.00
2012,03,30,14,54,0.00
2012,03,30,14,55,0.00
2012,03,30,14,56,0.00
2012,03,30,14,57,0.00
2012,03,30,14,58,0.00
2012,03,30,14,59,0.00
2012,03,30,15,00,0.00
2012,03,30,15,01,0.00
2012,03,30,15,02,0.00
2012,03,30,15,03,0.00
2012,03,30,15,04,0.00
2012,03,30,15,05,0.00
2012,03,30,15,06,0.00
2012,03,30,15,07,0.00
2012,03,30,15,08,0.00
2012,03,30,15,09,0.00
2012,03,30,15,10,0.00
2012,03,30,15,11,0.00
2012,03,30,15,12,0.00
2012,03,30,15,13,0.00
2012,03,30,15,14,0.00
2012,03,30,15,15,0.00
2012,03,30,15,16,0.00
2012,03,30,15,17,0.00
2012,03,30,15,18,0.00
2012,03,30,15,19,0.00
2012,03,30,15,20,0.00
2012,03,30,15,21,0.00
2012,03,30,15,22,0.00
2012,03,30,15,23,0.00
2012,03,30,15,24,0.00
2012,03,30,15,25,0.00
2012,03,30,15,26,0.00
2012,03,30,15,27,0.00
2012,03,30,15,28,0.00
2012,03,30,15,29,0.00
2012,03,30,15,30,0.00
2012,03,30,15,31,0.00
2012,03,30,15,32,0.00
2012,03,30,15,33,0.00
2012,03,30,15,34,0.00
2012,03,30,15,35,0.00
2012,03,30,15,36,0.00
2012,03,30,15,37,0.00
2012,03,30,15,38,0.00
2012,03,30,15,39,0.00
2012,03,30,15,40,0.00
2012,03,30,15,41,0.00
2012,03,30,15,42,0.00
2012,03,30,15,43,0.00
2012,03,30,15,44,0.00
2012,03,30,15,45,0.00
2012,03,30,15,46,0.00
2012,03,30,15,47,0.00
2012,03,30,15,48,0.00
2012,03,30,15,49,0.00
2012,03,30,15,50,0.00
2012,03,30,15,51,0.00
2012,03,30,15,52,0.00
2012,03,30,15,53,0.00
2012,03,30,15,54,0.00
2012,03,30,15,55,0.00
2012,03,30,15,56,0.00
2012,03,30,15,57,0.00
2012,03,30,15,58,0.20
2012,03,30,15,59,0.90
2012,03,30,16,00,0.00
2012,03,30,16,01,0.00
2012,03,30,16,02,0.20
2012,03,30,16,03,0.00
2012,03,30,16,04,0.00
2012,03,30,16,05,0.00
2012,03,30,16,06,0.00
2012,03,30,16,07,0.00
2012,03,30,16,08,0.20
2012,03,30,16,09,0.10
2012,03,30,16,10,0.00
2012,03,30,16,11,0.00
2012,03,30,16,12,0.00
2012,03,30,16,13,0.80
2012,03,30,16,14,0.10
2012,03,30,16,15,2.00
2012,03,30,16,16,0.00
2012,03,30,16,17,0.00
2012,03,30,16,18,0.60
2012,03,30,16,19,0.10
2012,03,30,16,20,1.20
2012,03,30,16,21,0.00
2012,03,30,16,22,0.10
2012,03,30,16,23,0.10
2012,03,30,16,24,0.00
2012,03,30,16,25,0.10
2012,03,30,16,26,0.00
2012,03,30,16,27,0.00
2012,03,30,16,28,0.20
2012,03,30,16,29,0.80
2012,03,30,16,30,0.20
2012,03,30,16,31,1.00
2012,03,30,16,32,1.70
2012,03,30,16,33,0.10
2012,03,30,16,34,0.00
2012,03,30,16,35,2.80
2012,03,30,16,36,2.60
2012,03,30,16,37,0.20
2012,03,30,16,38,4.90
2012,03,30,16,39,1.80
2012,03,30,16,40,1.00
2012,03,30,16,41,2.10
2012,03,30,16,42,2.80
2012,03,30,16,43,0.30
2012,03,30,16,44,3.80
2012,03,30,16,45,2.20
2012,03,30,16,46,0.60
2012,03,30,16,47,7.00
2012,03,30,16,48,9.30
2012,03,30,16,49,11.80
2012,03,30,16,50,5.10
2012,03,30,16,51,3.00
2012,03,30,16,52,3.10
2012,03,30,16,53,2.40
2012,03,30,16,54,4.60
2012,03,30,16,55,4.40
2012,03,30,16,56,9.50
2012,03,30,16,57,5.40
2012,03,30,16,58,5.60
2012,03,30,16,59,0.30
2012,03,30,17,00,0.70
2012,03,30,17,01,2.00
2012,03,30,17,02,2.90
2012,03,30,17,03,2.90
2012,03,30,17,04,3.00
2012,03,30,17,05,5.30
2012,03,30,17,06,2.10
2012,03,30,17,07,3.60
2012,03,30,17,08,0.10
2012,03,30,17,09,4.70
2012,03,30,17,10,1.20
2012,03,30,17,11,1.00
2012,03,30,17,12,2.40
2012,03,30,17,13,4.60
2012,03,30,17,14,1.00
2012,03,30,17,15,0.20
2012,03,30,17,16,3.30
2012,03,30,17,17,3.10
2012,03,30,17,18,2.20
2012,03,30,17,19,1.80
2012,03,30,17,20,5.20
2012,03,30,17,21,4.20
2012,03,30,17,22,1.00
2012,03,30,17,23,2.10
2012,03,30,17,24,5.20
2012,03,30,17,25,5.50
2012,03,30,17,26,2.10
2012,03,30,17,27,0.90
2012,03,30,17,28,0.60
2012,03,30,17,29,0.00
2012,03,30,17,30,0.00
2012,03,30,17,31,0.00
2012,03,30,17,32,0.70
2012,03,30,17,33,3.70
2012,03,30,17,34,1.50
2012,03,30,17,35,2.60
2012,03,30,17,36,0.10
2012,03,30,17,37,0.60
2012,03,30,17,38,1.90
2012,03,30,17,39,3.10
2012,03,30,17,40,2.60
2012,03,30,17,41,1.20
2012,03,30,17,42,3.90
2012,03,30,17,43,4.60
2012,03,30,17,44,2.80
2012,03,30,17,45,4.20
2012,03,30,17,46,7.00
2012,03,30,17,47,3.30
2012,03,30,17,48,0.80
2012,03,30,17,49,0.20
2012,03,30,17,50,2.30
2012,03,30,17,51,0.10
2012,03,30,17,52,1.50
2012,03,30,17,53,1.70
2012,03,30,17,54,0.80
2012,03,30,17,55,0.40
2012,03,30,17,56,0.20
2012,03,30,17,57,0.10
2012,03,30,17,58,1.50
2012,03,30,17,59,0.20
2012,03,30,18,00,1.80
2012,03,30,18,01,1.20
2012,03,30,18,02,1.40
2012,03,30,18,03,0.40
2012,03,30,18,04,1.40
2012,03,30,18,05,1.20
2012,03,30,18,06,0.10
2012,03,30,18,07,0.60
2012,03,30,18,08,0.30
2012,03,30,18,09,0.00
2012,03,30,18,10,0.10
2012,03,30,18,11,1.60
2012,03,30,18,12,0.90
2012,03,30,18,13,0.80
2012,03,30,18,14,0.20
2012,03,30,18,15,0.40
2012,03,30,18,16,0.70
2012,03,30,18,17,0.60
2012,03,30,18,18,0.20
2012,03,30,18,19,1.10
2012,03,30,18,20,0.50
2012,03,30,18,21,0.50
2012,03,30,18,22,1.10
2012,03,30,18,23,0.20
2012,03,30,18,24,0.30
2012,03,30,18,25,0.10
2012,03,30,18,26,1.00
2012,03,30,18,27,1.40
2012,03,30,18,28,0.90
2012,03,30,18,29,0.10
2012,03,30,18,30,0.00
2012,03,30,18,31,1.00
2012,03,30,18,32,1.20
2012,03,30,18,33,0.50
2012,03,30,18,34,0.20
2012,03,30,18,35,0.60
2012,03,30,18,36,0.00
2012,03,30,18,37,0.00
2012,03,30,18,38,0.00
2012,03,30,18,39,0.00
2012,03,30,18,40,0.10
2012,03,30,18,41,0.10
2012,03,30,18,42,0.00
2012,03,30,18,43,0.00
2012,03,30,18,44,0.00
2012,03,30,18,45,0.40
2012,03,30,18,46,1.30
2012,03,30,18,47,0.10
2012,03,30,18,48,0.30
2012,03,30,18,49,0.00
2012,03,30,18,50,0.00
2012,03,30,18,51,0.60
2012,03,30,18,52,0.60
2012,03,30,18,53,1.10
2012,03,30,18,54,0.10
2012,03,30,18,55,0.10
2012,03,30,18,56,0.10
2012,03,30,18,57,0.00
2012,03,30,18,58,0.30
2012,03,30,18,59,0.00
2012,03,30,19,00,0.20
2012,03,30,19,01,0.10
2012,03,30,19,02,0.20
2012,03,30,19,03,0.00
2012,03,30,19,04,0.10
2012,03,30,19,05,0.00
2012,03,30,19,06,0.40
2012,03,30,19,07,0.60
2012,03,30,19,08,0.20
2012,03,30,19,09,0.00
2012,03,30,19,10,0.10
2012,03,30,19,11,0.50
2012,03,30,19,12,0.10
2012,03,30,19,13,0.10
2012,03,30,19,14,0.00
2012,03,30,19,15,0.00
2012,03,30,19,16,0.10
2012,03,30,19,17,0.20
2012,03,30,19,18,0.90
2012,03,30,19,19,1.90
2012,03,30,19,20,0.00
2012,03,30,19,21,0.00
2012,03,30,19,22,0.00
2012,03,30,19,23,0.00
2012,03,30,19,24,0.00